This is the latest recevied weather packets stored in our database for station/object G1SCQ. If no packets are shown the sender has not sent any weather packets the latest 1 day(s).
| Time | Temp. | Humidity | Pressure | Rain* | Wind** | Luminosity | Snow |
|---|---|---|---|---|---|---|---|
| 1836274678 | 13.89° C | 97% | 1010.5 hPa | 0 mm | 0.89 m/s, 250° | 0 W/m² | - |
| 1836274468 | 13.89° C | 96% | 1010.7 hPa | 0 mm | 0.89 m/s, 252° | 0 W/m² | - |
| 1836274138 | 13.89° C | 97% | 1010.7 hPa | 0 mm | 0.89 m/s, 246° | 0 W/m² | - |
| 1778054044 | 8.33° C | 85% | 1012.9 hPa | 0 mm | 0.89 m/s, 18° | 163 W/m² | - |
| 1778053504 | 8.89° C | 87% | 1012.9 hPa | 0 mm | 0.89 m/s, 47° | 155 W/m² | - |
| 1778052964 | 8.33° C | 87% | 1012.8 hPa | 0 mm | 0.89 m/s, 60° | 151 W/m² | - |
| 1778052424 | 7.78° C | 88% | 1012.6 hPa | 0 mm | 0.89 m/s, 63° | 134 W/m² | - |
| 1778051884 | 7.78° C | 89% | 1012.8 hPa | 0 mm | 0.45 m/s, 79° | 90 W/m² | - |
| 1778051344 | 7.78° C | 91% | 1012.7 hPa | 0 mm | 0.45 m/s, 70° | 92 W/m² | - |
| 1778050804 | 7.78° C | 91% | 1012.7 hPa | 0 mm | 0.89 m/s, 51° | 84 W/m² | - |
| 1778050444 | 7.78° C | 92% | 1012.5 hPa | 0 mm | 0.89 m/s, 73° | 99 W/m² | - |
| 1778049904 | 7.78° C | 94% | 1012.4 hPa | 0 mm | 0.45 m/s, 46° | 86 W/m² | - |
| 1778049364 | 7.22° C | 94% | 1012.4 hPa | 0 mm | 0.45 m/s, 103° | 57 W/m² | - |
| 1778048824 | 7.22° C | 95% | 1012.2 hPa | 0 mm | 0.45 m/s, 53° | 75 W/m² | - |
| 1778048284 | 7.22° C | 95% | 1012.3 hPa | 0 mm | 0.45 m/s, 56° | 35 W/m² | - |
| 1778047744 | 6.67° C | 95% | 1012.1 hPa | 0 mm | 0.45 m/s, 59° | 55 W/m² | - |
| 1778047204 | 7.22° C | 96% | 1012.2 hPa | 0 mm | 0.45 m/s, 85° | 31 W/m² | - |
| 1778046844 | 6.67° C | 96% | 1012.4 hPa | 0 mm | 0.45 m/s, 74° | 21 W/m² | - |
| 1778046304 | 7.22° C | 95% | 1012.4 hPa | 0 mm | 0.45 m/s, 62° | 24 W/m² | - |
| 1778045764 | 7.22° C | 95% | 1012.4 hPa | 0 mm | 0 m/s | 29 W/m² | - |
| 1778045224 | 7.22° C | 93% | 1012.3 hPa | 0 mm | 1.34 m/s, 323° | 13 W/m² | - |
| 1778044684 | 7.22° C | 93% | 1012.1 hPa | 0 mm | 0.45 m/s, 332° | 11 W/m² | - |
| 1778044144 | 7.78° C | 92% | 1012.2 hPa | 0 mm | 0.89 m/s, 329° | 9 W/m² | - |
| 1778043604 | 7.78° C | 91% | 1012.1 hPa | 0 mm | 0.89 m/s, 340° | 4 W/m² | - |
| 1778043244 | 7.22° C | 91% | 1012.2 hPa | 0 mm | 0.45 m/s, 309° | 7 W/m² | - |
* Rain latest hour (hover to see other rain measurements)
** Current wind speed in m/s (hover to see current wind gust speed)